Weather History for West Palm Beach, FL

Change the Weather History Date:

Tuesday, October 4, 2011

  Actual Average Record
Temperature  
Mean Temperature 81 °F 80 °F  
Max Temperature 85 °F 87 °F 92 °F (1988)
Min Temperature 76 °F 74 °F 57 °F (1929)
Degree Days  
Heating Degree Days 0 0  
Month to date heating degree days 0 0  
Since 1 July heating degree days 0 0  
Cooling Degree Days 16 15  
Month to date cooling degree days 62 62  
Year to date cooling degree days 3954 3270  
Growing Degree Days 30 (Base 50)    
Moisture  
Dew Point 62 °F    
Average Humidity 55    
Maximum Humidity 62    
Minimum Humidity 48    
Precipitation  
Precipitation 0.00 in 0.20 in 2.88 in (1982)
Month to date precipitation 0.00 0.82  
Year to date precipitation 35.77 49.89  
Snow  
Snow 0.00 in - - ()
Month to date snowfall 0.0  
Since 1 July snowfall 0.0  
Since 1 September snowfall 0.0  
Snow Depth 0.00 in    
Sea Level Pressure  
Sea Level Pressure 30.07 in    
Wind  
Wind Speed 11 mph (NE)    
Max Wind Speed 17 mph    
Max Gust Speed 23 mph    
Visibility 10 miles    
Events      
T = Trace of Precipitation, MM = Missing Value Source: NWS Daily Summary

Daily Weather History Graph

Daily Weather History Graph

Search for Another Location

Airport:

Trip Planner

Search our weather history database for the weather conditions in past years. The results will help you decide how hot, cold, wet, or windy it might be!

Date:

Astronomy

Oct. 04, 2011 Rise Set
Actual Time 7:14 AM EDT 7:03 PM EDT
Civil Twilight 6:51 AM EDT 7:26 PM EDT
Nautical Twilight 6:24 AM EDT 7:53 PM EDT
Astronomical Twilight 5:57 AM EDT 8:20 PM EDT
Moon 2:29 PM EDT (10/4) 12:33 AM EDT (10/4)
Length of Visible Light 12h 35m
Length of Day
11h 49m
First Quarter, 56% of the Moon is Illuminated
Oct 4
First Quarter
Oct 11
Full
Oct 19
Last Quarter
Oct 26
New
Nov 2
First Quarter

Hourly Weather History & Observations

Time (EDT) Temp. Heat Index Dew Point Humidity Pressure Visibility Wind Dir Wind Speed Gust Speed Precip Events Conditions
12:53 AM 79.0 °F - 64.0 °F 60% 30.07 in 10.0 mi ENE 5.8 mph - N/A   Partly Cloudy
1:53 AM 78.1 °F - 64.0 °F 62% 30.05 in 10.0 mi NE 5.8 mph - N/A   Partly Cloudy
2:53 AM 78.1 °F - 64.0 °F 62% 30.05 in 10.0 mi NE 8.1 mph - N/A   Partly Cloudy
3:53 AM 78.1 °F - 63.0 °F 60% 30.06 in 10.0 mi ENE 9.2 mph - N/A   Partly Cloudy
4:53 AM 78.1 °F - 62.1 °F 58% 30.05 in 10.0 mi NNE 5.8 mph - N/A   Partly Cloudy
5:53 AM 77.0 °F - 62.1 °F 60% 30.06 in 10.0 mi NE 10.4 mph - N/A   Partly Cloudy
6:53 AM 77.0 °F - 61.0 °F 58% 30.07 in 10.0 mi NE 9.2 mph - N/A   Scattered Clouds
7:53 AM 78.1 °F - 62.1 °F 58% 30.08 in 10.0 mi ENE 9.2 mph - N/A   Mostly Cloudy
8:53 AM 80.1 °F 81.1 °F 61.0 °F 52% 30.10 in 10.0 mi NE 13.8 mph - N/A   Mostly Cloudy
9:53 AM 81.0 °F 81.7 °F 61.0 °F 50% 30.11 in 10.0 mi ENE 13.8 mph - N/A   Mostly Cloudy
10:53 AM 82.9 °F 84.0 °F 63.0 °F 51% 30.12 in 10.0 mi ENE 12.7 mph - N/A   Mostly Cloudy
11:53 AM 84.0 °F 84.5 °F 62.1 °F 47% 30.12 in 10.0 mi East 13.8 mph 19.6 mph N/A   Mostly Cloudy
12:53 PM 84.0 °F 84.5 °F 62.1 °F 47% 30.10 in 10.0 mi ENE 13.8 mph 18.4 mph N/A   Mostly Cloudy
1:53 PM 82.9 °F 84.0 °F 63.0 °F 51% 30.08 in 10.0 mi NE 10.4 mph - N/A   Mostly Cloudy
2:53 PM 84.0 °F 85.4 °F 64.0 °F 51% 30.06 in 10.0 mi ENE 12.7 mph - N/A   Mostly Cloudy
3:53 PM 84.0 °F 84.9 °F 63.0 °F 49% 30.04 in 10.0 mi NE 11.5 mph - N/A   Scattered Clouds
4:53 PM 82.9 °F 83.7 °F 62.1 °F 49% 30.04 in 10.0 mi NNE 10.4 mph 17.3 mph N/A   Scattered Clouds
5:53 PM 82.0 °F 83.1 °F 63.0 °F 52% 30.04 in 10.0 mi ENE 12.7 mph - N/A   Scattered Clouds
6:53 PM 81.0 °F 82.2 °F 63.0 °F 54% 30.04 in 10.0 mi NE 12.7 mph - N/A   Scattered Clouds
7:53 PM 80.1 °F 81.2 °F 62.1 °F 54% 30.05 in 10.0 mi NNE 8.1 mph - N/A   Scattered Clouds
8:53 PM 80.1 °F 81.2 °F 62.1 °F 54% 30.06 in 10.0 mi ENE 9.2 mph - N/A   Scattered Clouds
9:53 PM 80.1 °F 80.9 °F 60.1 °F 50% 30.08 in 10.0 mi NE 10.4 mph - N/A   Scattered Clouds
10:53 PM 79.0 °F - 61.0 °F 54% 30.08 in 10.0 mi ENE 8.1 mph - N/A   Scattered Clouds
11:53 PM 79.0 °F - 61.0 °F 54% 30.07 in 10.0 mi NE 12.7 mph - N/A   Mostly Cloudy